Regional Weather Roundup
Issued by NWS Boston, MA

Current Version | Previous Version | Text Only | Print | Product List | Glossary Off
Versions: 1 2 3 4 5 6 7 8 9 10 11 12 13 14 15 16 17 18 19 20 21 22 23 24 25 26 27 28 29 30 31 32 33 34 35 36 37 38 39 40 41 42 43 44 45 46 47 48 49 50
574 ASUS41 KBOX 231800 RWRBOX REGIONAL WEATHER ROUNDUP NATIONAL WEATHER SERVICE BOSTON/NORTON MA 100 PM EST WED JAN 23 2019 NOTE: "FAIR" INDICATES FEW OR NO CLOUDS BELOW 12,000 FEET WITH NO SIGNIFICANT WEATHER AND/OR OBSTRUCTIONS TO VISIBILITY. MAZALL-231900- EASTERN MASSACHUSETTS CITY SKY/WX TMP DP RH WIND PRES REMARKS BOSTON CLOUDY 40 27 59 SW22 30.17F WCI 30 6HR MIN TEMP: 24; 6HR MAX TEMP: 40; BEVERLY FAIR 38 25 59 S15G26 30.14F WCI 29 LAWRENCE FAIR 36 23 59 SW14G22 30.14F WCI 27 BEDFORD NOT AVBL BLUE HILL N/A 35 26 69 S21G35 30.14F WCI 24 NORWOOD CLOUDY 41 28 60 SW14 30.19F MARSHFIELD PTSUNNY 43 32 65 SW15G28 30.20F PLYMOUTH CLOUDY 41 33 73 SW17G26 30.22F TAUNTON CLOUDY 42 31 64 S9G21 30.22F NEW BEDFORD CLOUDY 43 36 76 SW23G32 30.23F $$ MAZALL-231900- CAPE COD AND THE ISLANDS CITY SKY/WX TMP DP RH WIND PRES REMARKS FALMOUTH CLOUDY 43 34 70 SW21G28 30.25F HYANNIS NOT AVBL CHATHAM CLOUDY 39 34 82 S10G22 30.27F PROVINCETOWN CLOUDY 41 35 79 S18 30.22F NANTUCKET CLOUDY 40 36 86 S13 30.29F MARTHAS VNYRD CLOUDY 43 37 79 SW16 30.27F $$ MAZALL-231900- CENTRAL AND WESTERN MASSACHUSETTS CITY SKY/WX TMP DP RH WIND PRES REMARKS WORCESTER CLOUDY 33 22 63 SW21G28 30.13F WCI 21 6HR MIN TEMP: 19; 6HR MAX TEMP: 33; FITCHBURG PTSUNNY 37 20 50 SW14G26 30.14F WCI 28 ORANGE PTSUNNY 34 18 52 S18 30.14F WCI 23 SPRINGFIELD NOT AVBL WESTFIELD CLOUDY 35 20 54 S15 30.15F WCI 25 NORTH ADAMS CLOUDY 34 19 54 NE6 30.09F WCI 29 PITTSFIELD MIX PCPN 34 22 61 VRB3 30.06F $$ RIZALL-231900- RHODE ISLAND CITY SKY/WX TMP DP RH WIND PRES REMARKS PROVIDENCE CLOUDY 40 28 62 SW12 30.23F 6HR MIN TEMP: 22; 6HR MAX TEMP: 40; NEWPORT CLOUDY 42 35 76 S12G17 30.24F BLOCK ISLAND CLOUDY 43 34 70 SW15 30.26F SMITHFIELD CLOUDY 36 27 69 SW9 30.19F WCI 29 WESTERLY CLOUDY 43 32 65 SW13 30.25F $$ CTZALL-231900- CONNECTICUT CITY SKY/WX TMP DP RH WIND PRES REMARKS BRADLEY INTL CLOUDY 35 23 61 S14 30.19F WCI 26 6HR MIN TEMP: 17; 6HR MAX TEMP: 35; HARTFORD CLOUDY 36 26 67 S8 30.22F WCI 30 BRIDGEPORT CLOUDY 38 26 62 SW8 30.24F DANBURY CLOUDY 34 22 61 S7 30.21F WCI 28 GROTON NOT AVBL NEW HAVEN CLOUDY 39 28 64 SW9 30.23F CHESTER CLOUDY 39 23 52 SW12 30.22F WCI 32 MERIDEN N/A 35 26 69 S7 30.22F WCI 29 WILLIMANTIC CLOUDY 37 26 64 SW9 30.22F WCI 30 OXFORD CLOUDY 30 25 81 S5 30.20F WCI 25 $$ MEZ002-015-021-024-NHZ003-005-008-011-012-014-VTZ005-008-231900- NORTHERN NEW ENGLAND CITY SKY/WX TMP DP RH WIND PRES REMARKS PORTLAND ME PTSUNNY 34 15 46 S15G24 30.14F WCI 24 6HR MIN TEMP: 19; 6HR MAX TEMP: 34; BANGOR ME CLOUDY 35 21 56 S12 30.10F WCI 27 CONCORD NH FAIR 31 17 56 SE8 30.11F WCI 23 MANCHESTER NH PTSUNNY 37 17 44 S13 30.10F WCI 29 NASHUA NH FAIR 37 19 48 VRB6 30.13F PORTSMOUTH NH CLOUDY 35 19 52 SW13G21 30.11F WCI 26 JAFFREY NH PTSUNNY 34 19 54 S12G20 30.08F WCI 25 KEENE NH CLOUDY 34 17 50 S18G25 30.09F WCI 23 BURLINGTON VT CLOUDY 28 13 53 S17G24 30.02F WCI 16 MT. WASHINGTON NOT AVBL $$ NYZ052-076-231900- EASTERN NEW YORK CITY SKY/WX TMP DP RH WIND PRES REMARKS ALBANY FRZ RAIN 31 16 54 S18 30.09F WCI 19 6HR MIN TEMP: 26; 6HR MAX TEMP: 31; 6HR PCP: TRACE; NEW YORK CITY CLOUDY 39 18 42 S9 30.23F 6HR MIN TEMP: 32; 6HR MAX TEMP: 39; 6HR PCP: TRACE; $$ ANZALL-231900- MARINE OBSERVATIONS STATION/POSITION TIME TEMP WIND PRES VSBY WAVE AIR SEA DIR/SP/G HT/PER (UTC) (F) (DEG/KT/KT) (MB) (MI) (FT/S) BOSTON BUOY 1650 37 41 170/ 16/ 17 1023.4 2/ 3 BUZZARDS BAY 1700 42 210/ 21/ 23 1025.9F NANTUCKET SOUND 1740 37 33 200/ 12/ 14 1025.3F MASS BAY-STELLWA 1704 37 40 200/ 19/ 23 1021.9F 1 7/8 4/ 4 ISLE OF SHOALS 1700 35 210/ 29/ 32 1021.3F S OF BLOCK IS 1730 44 N/A 7/ 7 $$ ......................KEY......................... SKY/WX - SKY CONDITION/PRESENT WEATHER TMP - TEMPERATURE IN FAHRENHEIT DWPT - DEWPOINT IN FAHRENHEIT RH - RELATIVE HUMIDITY IN PERCENT WIND - DIRECTION AND SPEED IN MPH PRES - MEAN SEA LEVEL PRESSURE IN INCHES OF HG WCI - WIND CHILL INDEX VSB - VISIBILITY IN MILES HX - HEAT INDEX TC - TEMPERATURE IN CELSIUS VRB - VARIABLE WIND DIRECTION N/A - NOT AVAILABLE

USA.gov is the U.S. government's official web portal to all federal, state and local government web resources and services.